DW5274 Weather Reports


Display with metric or nautical units.
time (UTC)temp
F
wind
direction
speed
MPH
gust
MPH
rain 1hr
in
rain 24hr
in
rain mn
in
humidity
%
barometer
mb
20260905000034 61 360 0.0 0.0 0.00 0.00 0.07 65 1014.7
20260904234528 61 360 0.0 0.0 0.00 0.00 0.07 65 1014.5
20260904233007 60 360 0.0 0.0 0.00 0.00 0.07 68 1014.5
20260904231504 59 360 0.0 0.0 0.00 0.00 0.07 71 1014.6
20260904230045 58 360 0.0 0.0 0.00 0.00 0.07 76 1014.6
20260904224540 56 360 0.0 0.0 0.00 0.00 0.07 81 1014.8
20260904223020 54 338 0.0 0.0 0.00 0.00 0.06 84 1014.9
20260904221521 53 338 0.0 0.0 0.00 0.00 0.06 84 1014.9
20260904220002 53 338 0.0 0.0 0.00 0.00 0.06 83 1015.1
20260904214502 53 338 0.0 0.0 0.00 0.00 0.06 84 1015.1
20260904213105 53 338 0.0 0.0 0.00 0.00 0.06 83 1014.9
20260904211543 53 338 0.0 0.0 0.00 0.00 0.06 84 1015.0
20260904210048 54 338 0.0 0.0 0.00 0.00 0.05 83 1014.9
20260904204525 53 338 0.0 0.0 0.00 0.00 0.04 81 1014.8
20260904203025 54 338 0.0 0.0 0.00 0.00 0.04 79 1015.0
20260904201507 54 338 0.0 0.0 0.00 0.00 0.04 80 1014.5
20260904200006 54 338 0.0 0.0 0.00 0.00 0.04 83 1014.4
20260904194551 54 338 0.0 0.0 0.00 0.00 0.04 85 1014.5
20260904193045 53 338 0.0 0.0 0.00 0.00 0.04 84 1014.7
20260904191533 53 338 0.0 0.0 0.00 0.00 0.02 83 1014.9
20260904190027 53 338 0.0 0.0 0.00 0.00 0.02 82 1014.9
20260904184514 53 338 0.0 0.0 0.00 0.00 0.02 83 1014.9
20260904183013 53 338 0.0 0.0 0.00 0.00 0.02 82 1014.8
20260904181512 53 338 0.0 0.0 0.00 0.00 0.02 83 1014.9
20260904180013 52 338 0.0 0.0 0.00 0.00 0.02 83 1014.9
20260904174514 52 338 0.0 0.0 0.00 0.00 0.02 84 1014.7
20260904173012 52 338 0.0 0.0 0.00 0.00 0.02 86 1014.6
20260904171507 52 338 0.0 0.0 0.00 0.00 0.02 87 1014.3
20260904170003 52 338 0.0 0.0 0.00 0.00 0.02 87 1014.2
20260904164543 51 338 0.0 0.0 0.00 0.00 0.02 89 1014.2
20260904163042 51 338 0.0 0.0 0.00 0.00 0.02 90 1014.1
20260904161520 50 338 0.0 0.0 0.00 0.00 0.02 92 1013.8
20260904160021 49 338 0.0 0.0 0.00 0.00 0.02 92 1013.7
20260904154502 49 338 0.0 0.0 0.00 0.00 0.02 92 1013.7
20260904153001 49 338 0.0 0.0 0.00 0.00 0.02 93 1013.5
20260904151542 48 338 0.0 0.0 0.00 0.00 0.02 93 1013.8
20260904150041 48 338 0.0 0.0 0.00 0.00 0.02 94 1013.6
20260904144521 47 337 0.0 0.0 0.00 0.00 0.02 94 1013.2
20260904143032 47 337 0.0 0.0 0.00 0.00 0.02 94 1013.2
20260904141500 47 337 0.0 0.0 0.00 0.00 0.02 94 1013.0
20260904140109 46 337 0.0 0.0 0.00 0.00 0.02 93 1012.7
20260904134601 46 337 0.0 0.0 0.00 0.00 0.02 93 1012.8
20260904133042 46 337 0.0 0.0 0.00 0.00 0.02 93 1012.4
20260904131519 46 337 0.0 0.0 0.00 0.00 0.02 93 1012.1
20260904130021 46 337 0.0 0.0 0.00 0.00 0.02 93 1011.9
20260904124610 46 337 0.0 0.0 0.00 0.00 0.02 93 1011.8
20260904123103 46 337 0.0 0.0 0.00 0.00 0.02 93 1011.9
20260904121549 46 337 0.0 0.0 0.00 0.00 0.02 93 1011.9
20260904120039 46 337 0.0 0.0 0.00 0.00 0.02 93 1011.9
20260904114521 46 337 0.0 0.0 0.00 0.00 0.02 93 1011.5
20260904113020 46 337 0.0 0.0 0.00 0.00 0.02 93 1011.7
20260904111601 46 337 0.0 0.0 0.00 0.00 0.02 93 1011.4
20260904104542 47 337 0.0 0.0 0.00 0.00 0.02 93 1011.4
20260904103041 47 337 0.0 0.0 0.00 0.00 0.02 93 1011.4
20260904101521 47 337 0.0 0.0 0.00 0.00 0.02 93 1011.0
20260904100022 47 337 0.0 0.0 0.00 0.00 0.02 93 1010.8
20260904094501 47 338 0.0 0.0 0.00 0.00 0.02 93 1010.6
20260904093002 47 338 0.0 0.0 0.00 0.00 0.02 93 1010.4
20260904091542 47 340 0.0 0.0 0.00 0.00 0.01 92 1010.4
20260904090052 47 342 0.0 0.0 0.00 0.00 0.00 92 1010.2
20260904084524 47 344 0.0 0.0 0.00 0.00 0.00 92 1009.9
20260904083039 47 344 0.0 0.0 0.00 0.00 0.00 92 1010.2
20260904081506 47 344 0.0 0.0 0.00 0.00 0.00 92 1010.2
20260904080006 47 344 0.0 0.0 0.00 0.00 0.00 92 1010.2
20260904074549 47 344 0.0 0.0 0.00 0.00 0.00 91 1010.4
20260904073050 46 344 0.0 0.0 0.00 0.00 0.00 91 1010.4
20260904071526 46 344 0.0 0.0 0.00 0.00 0.00 91 1010.3
20260904070050 46 344 0.0 0.0 0.00 0.00 0.00 91 1010.0
20260904064507 46 344 0.0 0.0 0.00 0.00 0.00 90 1010.3
20260904063011 46 346 0.0 0.0 0.00 0.00 0.00 90 1010.3
20260904061547 46 346 0.0 0.0 0.00 0.00 0.00 89 1010.6
20260904060045 47 360 0.0 0.0 0.00 0.00 0.00 89 1010.2
20260904054528 47 337 0.0 0.0 0.00 0.00 0.00 88 1010.3
20260904053042 47 345 0.0 0.0 0.00 0.00 0.00 88 1009.9
20260904051515 47 335 0.0 0.0 0.00 0.00 0.00 87 1009.9
20260904050004 48 326 0.0 0.0 0.00 0.00 0.00 86 1010.1
20260904044545 48 336 0.0 0.0 0.00 0.00 0.00 84 1010.2
20260904043052 48 355 4.0 0.0 0.00 0.00 0.00 81 1010.0
20260904041523 49 350 5.0 0.0 0.00 0.00 0.00 80 1009.8
20260904040021 49 313 5.0 0.0 0.00 0.00 0.00 79 1009.7
20260904034600 49 343 7.0 0.0 0.00 0.00 0.00 77 1009.1
20260904034502 49 333 7.0 0.0 0.00 0.00 0.00 77 1009.1
20260904033057 50 310 7.0 0.0 0.00 0.00 0.00 76 1008.4
20260904031547 52 338 5.0 0.0 0.00 0.00 0.00 73 1007.6
20260904030032 53 342 5.0 0.0 0.00 0.00 0.00 74 1007.3
20260904024510 55 20 6.0 0.0 0.00 0.00 0.00 76 1006.3
20260904023008 58 360 5.0 0.0 0.00 0.00 0.00 75 1005.3
20260904021550 60 321 3.0 0.0 0.00 0.00 0.00 77 1004.9
20260904020051 61 318 2.0 0.0 0.00 0.00 0.00 74 1004.6
20260904014532 62 306 3.0 0.0 0.00 0.00 0.00 70 1004.3
20260904013038 64 289 2.0 0.0 0.00 0.00 0.00 69 1004.1
20260904011513 65 286 2.0 0.0 0.00 0.00 0.00 68 1004.0
20260904010013 66 286 0.0 0.0 0.00 0.00 0.00 69 1004.0
20260904004555 66 286 2.0 0.0 0.00 0.00 0.00 66 1003.9
20260904003054 67 280 0.0 0.0 0.00 0.00 0.00 66 1004.0
20260904001535 68 280 0.0 0.0 0.00 0.00 0.00 64 1004.1